Home   Weather   42°16'N, 84°27'W   Past weeks
Flag for USA

Past Weather in 42°16'N, 84°27'W, USA — Yesterday and Last 2 Weeks

Now
62 °F

Mostly cloudy.


Feels Like: 62 °F
Forecast: 63 / 56 °F
Wind: 12 mph from North

Location: Capital City Airport

Current Time: Jun 20, 2019 at 5:26:53 pm

Latest Report: Jun 20, 2019 at 4:53 pm


Visibility: 10 mi

Pressure: 29.70 "Hg

Humidity: 90%

Dew Point: 59 °F

Location of 42°16'N, 84°27'WLocation

Past Weather in 42°16'N, 84°27'W — Graph

°F

42°16'N, 84°27'W Temperature Yesterday

Maximum temperature yesterday: 76 °F (at 12:53 pm)
Minimum temperature yesterday: 61 °F (at 3:53 am)
Average temperature yesterday: 67 °F

High & Low Weather Summary for the Past Weeks

 TemperatureHumidityPressure
High80 °F (Jun 7, 3:53 pm)100% (Jun 6, 1:07 am)30.21 "Hg (Jun 6, 1:07 am)
Low45 °F (Jun 14, 5:53 am)30% (Jun 8, 5:53 pm)29.61 "Hg (Jun 20, 4:53 am)
Average64 °F78%29.91 "Hg
* Reported Jun 5 4:53 pm — Jun 20 4:26 pm, 42°16'N, 84°27'W. Weather by CustomWeather, © 2019

Note: Actual official high and low records may vary slightly from our data, if they occured in-between our weather recording intervals... More about our weather records

Advertising

42°16'N, 84°27'W Weather History for the Previous 24 Hours

Scroll right to see more
 ConditionsComfort  
Time TempWeatherWind HumidityBarometerVisibility
4:26 pm
Thu, Jun 20
64 °FLight rain. More clouds than sun.13 mph87%29.70 "Hg10 mi
3:53 pm62 °FOvercast.8 mph93%29.70 "Hg10 mi
3:20 pm62 °FOvercast.8 mph93%29.69 "Hg10 mi
2:53 pm62 °FLight rain. Low clouds.10 mph93%29.66 "Hg10 mi
1:53 pm63 °FLight rain. Low clouds.10 mph90%29.64 "Hg10 mi
1:38 pm63 °FLight rain. Low clouds.14 mph90%29.64 "Hg10 mi
1:00 pm62 °FMostly cloudy.12 mph93%29.64 "Hg10 mi
11:53 am61 °FRain. Fog.13 mph93%29.63 "Hg5 mi
10:53 am60 °FLight rain. Fog.9 mph96%29.64 "Hg5 mi
9:53 am60 °FLight rain. Fog.10 mph96%29.63 "Hg5 mi
9:27 am59 °FRain. Fog.9 mph100%29.64 "Hg4 mi
9:19 am59 °FRain. Fog.12 mph100%29.64 "Hg4 mi
8:53 am60 °FLight rain. Fog.8 mph93%29.62 "Hg5 mi
7:53 am60 °FLight rain. Fog.6 mph96%29.62 "Hg6 mi
6:53 am59 °FLight rain. Low clouds.10 mph96%29.61 "Hg7 mi
5:53 am60 °FLight rain. Low clouds.14 mph96%29.61 "Hg8 mi
4:53 am62 °FLight rain. Fog.10 mph100%29.61 "Hg6 mi
3:53 am63 °FHeavy rain. Fog.8 mph97%29.62 "Hg2 mi
2:53 am63 °FRain. Fog.7 mph100%29.64 "Hg3 mi
1:48 am64 °FLight rain. Fog.8 mph97%29.65 "Hg5 mi
1:01 am63 °FRain. Fog.8 mph100%29.67 "Hg4 mi
12:37 am63 °FHeavy rain. Fog.13 mph100%29.67 "Hg3 mi
12:22 am63 °FHeavy rain. Fog.10 mph100%29.68 "Hg2 mi
11:53 pm
Wed, Jun 19
64 °FHeavy rain. Fog.3 mph97%29.68 "Hg1 mi
11:13 pm65 °FMostly cloudy.9 mph94%29.69 "Hg10 mi
10:53 pm65 °FMostly cloudy.7 mph94%29.67 "Hg10 mi
10:15 pm66 °FLight rain. Overcast.8 mph90%29.69 "Hg9 mi
9:53 pm67 °FMostly cloudy.6 mph87%29.68 "Hg10 mi
8:53 pm68 °FOvercast.7 mph87%29.68 "Hg10 mi
7:53 pm69 °FSunny.7 mph84%29.70 "Hg10 mi
6:53 pm72 °FPassing clouds.8 mph81%29.70 "Hg10 mi
5:53 pm73 °FMore clouds than sun.5 mph79%29.70 "Hg10 mi
Weather by CustomWeather, © 2019

See weather overview